• In Uzbekistan
  • List of Countries
  • For 7 days
  • Water Temperature
  • Satellite Maps
  • Weather Map
  • Weather Widgets
  • user-avatar
    Login

    Hourly Weather Astana

    Today, 24 May, Friday

    Time Temperature Precipitation Wind Pressure Humidity
    00:00 +10°C° 0 mm 4 mps 730 mmHg 63%
    01:00 +10°C° 0 mm 4 mps 729 mmHg 64%
    02:00 +10°C° 0 mm 4 mps 729 mmHg 66%
    03:00 +9°C° 0 mm 5 mps 729 mmHg 67%
    04:00 +9°C° 0 mm 5 mps 729 mmHg 67%
    05:00 +10°C° 0 mm 5 mps 729 mmHg 71%
    06:00 +13°C° 0.2 mm 5 mps 729 mmHg 68%
    07:00 +14°C° 0.2 mm 6 mps 729 mmHg 64%
    08:00 +16°C° 0.2 mm 6 mps 729 mmHg 61%
    09:00 +19°C° 0 mm 6 mps 729 mmHg 53%
    10:00 +21°C° 0 mm 7 mps 729 mmHg 44%
    11:00 +23°C° 0 mm 7 mps 729 mmHg 34%
    12:00 +23°C° 0 mm 7 mps 728 mmHg 33%
    13:00 +23°C° 0 mm 7 mps 728 mmHg 32%
    14:00 +23°C° 0 mm 7 mps 728 mmHg 31%
    15:00 +23°C° 0 mm 6 mps 728 mmHg 33%
    16:00 +23°C° 0 mm 6 mps 728 mmHg 34%
    17:00 +23°C° 0 mm 5 mps 728 mmHg 36%
    18:00 +21°C° 0 mm 4 mps 727 mmHg 40%
    19:00 +20°C° 0 mm 4 mps 727 mmHg 44%
    20:00 +18°C° 0 mm 3 mps 727 mmHg 48%
    21:00 +18°C° 0 mm 3 mps 727 mmHg 48%
    22:00 +17°C° 0 mm 3 mps 727 mmHg 47%
    23:00 +17°C° 0 mm 3 mps 727 mmHg 47%

    Tomorrow, 25 May, Saturday

    Time Temperature Precipitation Wind Pressure Humidity
    00:00 +17°C° 0 mm 4 mps 727 mmHg 47%
    01:00 +17°C° 0 mm 4 mps 726 mmHg 46%
    02:00 +16°C° 0 mm 5 mps 726 mmHg 46%
    03:00 +16°C° 0.4 mm 5 mps 726 mmHg 51%
    04:00 +15°C° 0.4 mm 5 mps 725 mmHg 57%
    05:00 +14°C° 0.4 mm 5 mps 725 mmHg 63%
    06:00 +16°C° 0 mm 6 mps 725 mmHg 55%
    07:00 +17°C° 0 mm 7 mps 724 mmHg 47%
    08:00 +18°C° 0 mm 8 mps 724 mmHg 39%
    09:00 +20°C° 0 mm 8 mps 724 mmHg 36%
    10:00 +22°C° 0 mm 9 mps 724 mmHg 32%
    11:00 +23°C° 0 mm 9 mps 723 mmHg 29%
    12:00 +22°C° 0 mm 8 mps 723 mmHg 31%
    13:00 +22°C° 0 mm 7 mps 723 mmHg 33%
    14:00 +21°C° 0 mm 7 mps 723 mmHg 35%
    15:00 +19°C° 0.3 mm 6 mps 724 mmHg 47%
    16:00 +16°C° 0.3 mm 6 mps 724 mmHg 60%
    17:00 +13°C° 0.3 mm 6 mps 724 mmHg 72%
    18:00 +10°C° 0.2 mm 6 mps 725 mmHg 72%
    19:00 +8°C° 0.2 mm 7 mps 726 mmHg 73%
    20:00 +5°C° 0.2 mm 7 mps 727 mmHg 73%
    21:00 +5°C° 0 mm 6 mps 729 mmHg 74%
    22:00 +6°C° 0 mm 4 mps 730 mmHg 75%
    23:00 +6°C° 0 mm 2 mps 731 mmHg 75%

    Day after tomorrow, 26 May, Sunday

    Time Temperature Precipitation Wind Pressure Humidity
    00:00 +5°C° 0 mm 3 mps 731 mmHg 75%
    01:00 +4°C° 0 mm 3 mps 732 mmHg 75%
    02:00 +4°C° 0 mm 3 mps 732 mmHg 75%
    03:00 +4°C° 0 mm 3 mps 733 mmHg 73%
    04:00 +3°C° 0 mm 3 mps 734 mmHg 72%
    05:00 +4°C° 0 mm 2 mps 735 mmHg 71%
    06:00 +4°C° 0 mm 3 mps 735 mmHg 61%
    07:00 +7°C° 0 mm 3 mps 736 mmHg 51%
    08:00 +8°C° 0 mm 3 mps 737 mmHg 41%
    09:00 +9°C° 0 mm 3 mps 737 mmHg 39%
    10:00 +10°C° 0 mm 3 mps 737 mmHg 36%
    11:00 +11°C° 0 mm 3 mps 738 mmHg 33%
    12:00 +12°C° 0 mm 3 mps 738 mmHg 32%
    13:00 +12°C° 0 mm 3 mps 738 mmHg 30%
    14:00 +13°C° 0 mm 3 mps 738 mmHg 29%
    15:00 +13°C° 0 mm 3 mps 738 mmHg 29%
    16:00 +14°C° 0 mm 3 mps 738 mmHg 28%
    17:00 +15°C° 0 mm 2 mps 738 mmHg 28%
    18:00 +14°C° 0 mm 2 mps 738 mmHg 32%
    19:00 +13°C° 0 mm 2 mps 739 mmHg 37%
    20:00 +12°C° 0 mm 1 mps 739 mmHg 41%
    21:00 +11°C° 0 mm 1 mps 739 mmHg 43%
    22:00 +9°C° 0 mm 2 mps 739 mmHg 45%
    23:00 +9°C° 0 mm 2 mps 740 mmHg 47%

    27 May, Monday

    Time Temperature Precipitation Wind Pressure Humidity
    00:00 +8°C° 0 mm 2 mps 740 mmHg 49%
    01:00 +8°C° 0 mm 2 mps 740 mmHg 50%
    02:00 +7°C° 0 mm 2 mps 740 mmHg 51%
    03:00 +7°C° 0 mm 2 mps 740 mmHg 52%
    04:00 +7°C° 0 mm 2 mps 740 mmHg 54%
    05:00 +7°C° 0 mm 2 mps 741 mmHg 55%
    06:00 +9°C° 0 mm 2 mps 741 mmHg 50%
    07:00 +10°C° 0 mm 2 mps 741 mmHg 45%
    08:00 +13°C° 0 mm 2 mps 741 mmHg 40%
    09:00 +13°C° 0 mm 3 mps 741 mmHg 37%
    10:00 +14°C° 0 mm 3 mps 741 mmHg 35%
    11:00 +16°C° 0 mm 3 mps 741 mmHg 32%
    12:00 +17°C° 0 mm 3 mps 741 mmHg 31%
    13:00 +18°C° 0 mm 2 mps 740 mmHg 29%
    14:00 +19°C° 0 mm 2 mps 740 mmHg 27%
    15:00 +19°C° 0 mm 2 mps 740 mmHg 27%
    16:00 +19°C° 0 mm 2 mps 740 mmHg 27%
    17:00 +20°C° 0 mm 2 mps 740 mmHg 26%
    18:00 +18°C° 0 mm 2 mps 739 mmHg 30%
    19:00 +17°C° 0 mm 2 mps 739 mmHg 34%
    20:00 +16°C° 0 mm 2 mps 739 mmHg 38%
    21:00 +15°C° 0 mm 2 mps 739 mmHg 39%
    22:00 +13°C° 0 mm 3 mps 739 mmHg 40%
    23:00 +12°C° 0 mm 3 mps 739 mmHg 41%

    28 May, Tuesday

    Time Temperature Precipitation Wind Pressure Humidity
    00:00 +12°C° 0 mm 3 mps 739 mmHg 43%
    01:00 +11°C° 0 mm 3 mps 739 mmHg 44%
    02:00 +11°C° 0 mm 3 mps 738 mmHg 45%
    03:00 +10°C° 0 mm 3 mps 738 mmHg 47%
    04:00 +10°C° 0 mm 3 mps 738 mmHg 48%
    05:00 +10°C° 0 mm 3 mps 738 mmHg 49%
    06:00 +12°C° 0 mm 3 mps 738 mmHg 45%
    07:00 +14°C° 0 mm 3 mps 738 mmHg 41%
    08:00 +17°C° 0 mm 4 mps 738 mmHg 37%
    09:00 +19°C° 0 mm 4 mps 738 mmHg 34%
    10:00 +21°C° 0 mm 3 mps 738 mmHg 30%
    11:00 +24°C° 0 mm 3 mps 737 mmHg 27%
    12:00 +25°C° 0 mm 4 mps 737 mmHg 26%
    13:00 +26°C° 0 mm 4 mps 737 mmHg 25%
    14:00 +26°C° 0 mm 4 mps 736 mmHg 24%
    15:00 +26°C° 0 mm 4 mps 736 mmHg 24%
    16:00 +26°C° 0 mm 4 mps 736 mmHg 24%
    17:00 +26°C° 0 mm 4 mps 736 mmHg 24%
    18:00 +25°C° 0 mm 3 mps 735 mmHg 28%
    19:00 +22°C° 0 mm 3 mps 735 mmHg 32%
    20:00 +20°C° 0 mm 2 mps 735 mmHg 35%
    21:00 +19°C° 0 mm 2 mps 735 mmHg 35%
    22:00 +19°C° 0 mm 2 mps 735 mmHg 35%
    23:00 +18°C° 0 mm 2 mps 735 mmHg 35%

    29 May, Wednesday

    Time Temperature Precipitation Wind Pressure Humidity
    00:00 +17°C° 0 mm 2 mps 734 mmHg 35%
    01:00 +17°C° 0 mm 3 mps 734 mmHg 36%
    02:00 +16°C° 0 mm 3 mps 734 mmHg 37%
    03:00 +16°C° 0 mm 3 mps 734 mmHg 40%
    04:00 +16°C° 0 mm 3 mps 734 mmHg 42%
    05:00 +14°C° 0 mm 3 mps 734 mmHg 44%
    06:00 +17°C° 0 mm 3 mps 734 mmHg 41%
    07:00 +19°C° 0 mm 4 mps 734 mmHg 38%
    08:00 +21°C° 0 mm 4 mps 734 mmHg 35%
    09:00 +22°C° 0 mm 5 mps 734 mmHg 31%
    10:00 +23°C° 0 mm 5 mps 734 mmHg 28%
    11:00 +26°C° 0 mm 5 mps 734 mmHg 24%
    12:00 +26°C° 0 mm 5 mps 733 mmHg 23%
    13:00 +27°C° 0 mm 5 mps 733 mmHg 22%
    14:00 +27°C° 0 mm 6 mps 733 mmHg 22%
    15:00 +26°C° 0 mm 5 mps 732 mmHg 23%
    16:00 +26°C° 0 mm 5 mps 732 mmHg 24%
    17:00 +25°C° 0 mm 5 mps 732 mmHg 25%
    18:00 +23°C° 0 mm 4 mps 732 mmHg 28%
    19:00 +21°C° 0 mm 3 mps 732 mmHg 31%
    20:00 +20°C° 0 mm 3 mps 731 mmHg 34%
    21:00 +19°C° 0 mm 3 mps 731 mmHg 34%
    22:00 +19°C° 0 mm 3 mps 731 mmHg 34%
    23:00 +18°C° 0 mm 3 mps 731 mmHg 34%
    Show more